Volver al catálogo

SL-12 R/B(2)

ActivoHEO
NORAD 25334·ROCKET BODY·🇷🇺 Russia

Lanzado May 7, 1998 desde Baikonur Cosmodrome

Loading…

Próximos Pases (próximas 24 horas)

TLE

ActualizadoSource: Space-Track

Época: Sep 13, 2026, 09:25 UTC

1 25334U 98028D   26256.39268318 -.00000190  00000-0  00000-0 0  9996
2 25334  17.3627 344.5745 4858813   6.6889 345.6841  1.82177809188653

Sigue SL-12 R/B(2) en tiempo real con AllMySat

Download on the App Store